EW2690 Weather Reports


Display with metric or nautical units.
time (UTC)temp
F
wind
direction
speed
MPH
gust
MPH
rain 1hr
in
rain 24hr
in
rain mn
in
humidity
%
barometer
mb
20260906213036 75 145 3.0 9.0 0.00 0.00 0.00 71 1028.2
20260906210310 76 123 4.0 9.0 0.00 0.00 0.00 69 1028.0
20260906210034 76 34 3.0 9.0 0.00 0.00 0.00 69 1028.1
20260906203011 75 175 3.0 12.0 0.00 0.00 0.00 71 1028.1
20260906200317 76 87 3.0 11.0 0.00 0.00 0.00 70 1028.0
20260906200011 76 54 4.0 11.0 0.00 0.00 0.00 69 1028.0
20260906193020 76 11 4.0 13.0 0.00 0.00 0.00 73 1028.3
20260906190324 76 331 3.0 12.0 0.00 0.00 0.00 74 1028.4
20260906190022 76 77 3.0 12.0 0.00 0.00 0.00 74 1028.4
20260906183028 76 347 4.0 9.0 0.00 0.00 0.00 72 1028.6
20260906180315 74 16 5.0 10.0 0.00 0.00 0.00 77 1028.4
20260906180055 74 56 2.0 4.0 0.00 0.00 0.00 79 1028.6
20260906173047 75 22 2.0 8.0 0.00 0.00 0.00 75 1028.6
20260906170417 74 51 3.0 6.0 0.00 0.00 0.00 79 1028.7
20260906170115 74 89 1.0 3.0 0.00 0.00 0.00 80 1028.7
20260906163039 76 60 3.0 9.0 0.00 0.00 0.00 71 1028.7
20260906160338 74 59 1.0 5.0 0.00 0.00 0.00 75 1028.9
20260906160041 74 169 2.0 5.0 0.00 0.00 0.00 74 1028.9
20260906153026 75 165 4.0 10.0 0.00 0.00 0.00 72 1028.8
20260906150320 75 96 3.0 9.0 0.00 0.00 0.00 77 1028.8
20260906150016 75 132 3.0 6.0 0.00 0.00 0.00 75 1028.8
20260906143013 73 115 2.0 7.0 0.00 0.00 0.00 79 1028.6
20260906140416 73 76 3.0 6.0 0.00 0.00 0.00 80 1028.4
20260906140025 73 5 3.0 7.0 0.00 0.00 0.00 82 1028.4
20260906133016 69 150 4.0 7.0 0.00 0.00 0.00 85 1028.2
20260906130338 65 132 3.0 7.0 0.00 0.00 0.00 100 1028.1
20260906130055 65 128 1.0 7.0 0.00 0.00 0.00 100 1028.1
20260906130013 65 128 1.0 7.0 0.00 0.00 0.00 100 1028.1
20260906123009 62 89 0.0 0.0 0.00 0.00 0.00 100 1027.9
20260906120342 59 89 0.0 0.0 0.00 0.00 0.00 100 1027.6
20260906120128 59 89 0.0 0.0 0.00 0.00 0.00 100 1027.6
20260906113052 59 89 0.0 0.0 0.00 0.00 0.00 100 1027.3
20260906110417 59 89 0.0 0.0 0.00 0.00 0.00 100 1027.1
20260906110010 59 89 0.0 0.0 0.00 0.00 0.00 100 1027.0
20260906103012 59 89 0.0 0.0 0.00 0.00 0.00 100 1026.9
20260906100423 58 89 0.0 2.0 0.00 0.00 0.00 100 1026.9
20260906100319 58 89 0.0 2.0 0.00 0.00 0.00 100 1026.9
20260906100022 58 89 0.0 2.0 0.00 0.00 0.00 100 1026.9
20260906093036 56 89 0.0 2.0 0.00 0.00 0.00 100 1026.7
20260906090355 56 89 0.0 0.0 0.00 0.00 0.00 100 1026.7
20260906090057 56 89 0.0 0.0 0.00 0.00 0.00 100 1026.6
20260906090015 56 89 0.0 0.0 0.00 0.00 0.00 100 1026.6
20260906083032 56 89 0.0 0.0 0.00 0.00 0.00 100 1026.5
20260906080331 57 89 0.0 0.0 0.00 0.00 0.00 100 1026.4
20260906080047 57 89 0.0 0.0 0.00 0.00 0.00 100 1026.4
20260906073024 56 89 0.0 0.0 0.00 0.00 0.00 99 1026.1
20260906070340 56 89 0.0 0.0 0.00 0.00 0.00 99 1025.9
20260906070039 56 89 0.0 0.0 0.00 0.00 0.00 99 1025.9
20260906063123 56 89 0.0 0.0 0.00 0.00 0.00 99 1025.8
20260906060327 57 89 0.0 0.0 0.00 0.00 0.00 99 1025.8
20260906060047 57 89 0.0 0.0 0.00 0.00 0.00 99 1025.8
20260906053045 57 89 0.0 0.0 0.00 0.00 0.00 99 1025.9
20260906050429 58 89 0.0 0.0 0.00 0.00 0.00 99 1026.1
20260906050018 58 89 0.0 0.0 0.00 0.00 0.00 99 1026.0
20260906043015 58 89 0.0 0.0 0.00 0.00 0.00 99 1026.0
20260906040353 58 89 0.0 0.0 0.00 0.00 0.00 98 1025.9
20260906040017 58 89 0.0 0.0 0.00 0.00 0.00 98 1025.9
20260906033016 59 89 0.0 1.0 0.00 0.00 0.00 98 1026.0
20260906030418 59 89 0.0 0.0 0.00 0.00 0.00 98 1025.9
20260906030336 59 89 0.0 0.0 0.00 0.00 0.00 98 1025.9
20260906030058 59 89 0.0 0.0 0.00 0.00 0.00 98 1025.9
20260906023011 60 89 0.0 0.0 0.00 0.00 0.00 97 1025.8
20260906020436 60 89 0.0 0.0 0.00 0.00 0.00 96 1025.7
20260906020029 60 89 0.0 0.0 0.00 0.00 0.00 96 1025.7
20260906013026 61 89 0.0 0.0 0.00 0.00 0.00 94 1025.5
20260906010342 63 89 0.0 0.0 0.00 0.00 0.00 93 1025.1
20260906010019 63 89 0.0 0.0 0.00 0.00 0.00 92 1025.1
20260906003052 65 89 0.0 0.0 0.00 0.00 0.00 88 1025.1
20260906000414 68 89 0.0 0.0 0.00 0.00 0.00 82 1024.7
20260906000030 68 89 0.0 0.0 0.00 0.00 0.00 81 1024.7
20260905233027 71 89 0.0 2.0 0.00 0.00 0.00 72 1024.8
20260905230327 74 93 1.0 3.0 0.00 0.00 0.00 66 1024.7
20260905230023 74 102 1.0 4.0 0.00 0.00 0.00 66 1024.7
20260905223022 75 73 2.0 4.0 0.00 0.00 0.00 63 1024.7
20260905220356 76 329 3.0 6.0 0.00 0.00 0.00 60 1024.6
20260905220038 76 34 2.0 4.0 0.00 0.00 0.00 61 1024.7